ProjectID,Date,Electric Generation,Electric Utility Import,Facility Electric Load
,YYYY-MM-DD,kW,kW,kW
908,2019-04-29,190.69565217391303,,190.69565217391303
908,2019-04-30,233.025,,233.025
908,2019-05-01,142.15,,142.15
908,2019-05-02,121.75,,121.75
908,2019-05-03,128.15,,128.15
908,2019-05-04,89.52499999999999,,89.52499999999999
908,2019-05-05,277.5,,277.5
908,2019-05-06,323.59999999999997,,323.59999999999997
908,2019-05-07,93.3,,93.3
908,2019-05-08,348.175,,348.175
908,2019-05-09,199.57500000000002,,199.57500000000002
908,2019-05-10,104.875,,104.875
908,2019-05-11,320.55,,320.55
908,2019-05-12,81.60000000000001,,81.60000000000001
908,2019-05-13,72.8,,72.8
908,2019-05-14,126.325,,126.325
908,2019-05-15,210.375,,210.375
908,2019-05-16,241.125,,241.125
908,2019-05-17,235.82500000000002,,235.82500000000002
908,2019-05-18,254.35,,254.35
908,2019-05-19,200.42499999999998,,200.42499999999998
908,2019-05-20,185.625,,185.625
908,2019-05-21,319.925,,319.925
908,2019-05-22,203.5,,203.5
908,2019-05-23,138.475,,138.475
908,2019-05-24,185.45000000000002,,185.45000000000002
908,2019-05-25,180.875,,180.875
908,2019-05-26,268.125,,268.125
908,2019-05-27,299.5,,299.5
908,2019-05-28,84.325,,84.325
908,2019-05-29,98.375,,98.375
908,2019-05-30,191.57500000000002,,191.57500000000002
908,2019-05-31,281.075,,281.075
908,2019-06-01,209.42499999999998,,209.42499999999998
908,2019-06-02,152.92499999999998,,152.92499999999998
908,2019-06-03,286.8,,286.8
908,2019-06-04,157.125,,157.125
908,2019-06-05,92.77499999999999,,92.77499999999999
908,2019-06-06,252.70000000000002,,252.70000000000002
908,2019-06-07,83.95,,83.95
908,2019-06-08,326.97499999999997,,326.97499999999997
908,2019-06-09,301.8,,301.8
908,2019-06-10,177.025,,177.025
908,2019-06-11,287.77500000000003,,287.77500000000003
908,2019-06-12,0.0,,0.0
908,2019-06-13,0.0,,0.0
908,2019-06-14,0.0,,0.0
908,2019-06-15,127.075,,127.075
908,2019-06-16,66.625,,66.625
908,2019-06-17,279.77500000000003,,279.77500000000003
908,2019-06-18,264.25,,264.25
908,2019-06-19,269.7,,269.7
908,2019-06-20,61.4,,61.4
908,2019-06-21,273.90000000000003,,273.90000000000003
908,2019-06-22,322.52500000000003,,322.52500000000003
908,2019-06-23,320.52500000000003,,320.52500000000003
908,2019-06-24,168.5,,168.5
908,2019-06-25,261.02500000000003,,261.02500000000003
908,2019-06-26,283.925,,283.925
908,2019-06-27,263.72499999999997,,263.72499999999997
908,2019-06-28,295.55,,295.55
908,2019-06-29,281.84999999999997,,281.84999999999997
908,2019-06-30,297.7,,297.7
908,2019-07-01,295.25,,295.25
908,2019-07-02,166.07500000000002,,166.07500000000002
908,2019-07-03,307.125,,307.125
908,2019-07-04,0.0,,0.0
908,2019-07-05,195.35,,195.35
908,2019-07-06,150.625,,150.625
908,2019-07-07,323.675,,323.675
908,2019-07-08,328.575,,328.575
908,2019-07-09,327.125,,327.125
908,2019-07-10,290.675,,290.675
908,2019-07-11,167.775,,167.775
908,2019-07-12,136.85,,136.85
908,2019-07-13,0.0,,0.0
908,2019-07-14,332.875,,332.875
908,2019-07-15,285.45,,285.45
908,2019-07-16,256.75,,256.75
908,2019-07-17,103.05,,103.05
908,2019-07-18,253.20000000000002,,253.20000000000002
908,2019-07-19,173.625,,173.625
908,2019-07-20,245.17499999999998,,245.17499999999998
908,2019-07-21,283.2,,283.2
908,2019-07-22,68.7,,68.7
908,2019-07-23,296.02500000000003,,296.02500000000003
908,2019-07-24,271.34999999999997,,271.34999999999997
908,2019-07-25,318.575,,318.575
908,2019-07-26,258.02500000000003,,258.02500000000003
908,2019-07-27,288.65000000000003,,288.65000000000003
908,2019-07-28,182.725,,182.725
908,2019-07-29,261.875,,261.875
908,2019-07-30,159.35,,159.35
908,2019-07-31,269.45,,269.45
908,2019-08-01,300.45,,300.45
908,2019-08-02,320.77500000000003,,320.77500000000003
908,2019-08-03,319.075,,319.075
908,2019-08-04,274.77500000000003,,274.77500000000003
908,2019-08-05,308.875,,308.875
908,2019-08-06,222.45000000000002,,222.45000000000002
908,2019-08-07,117.925,,117.925
908,2019-08-08,191.725,,191.725
908,2019-08-09,266.55,,266.55
908,2019-08-10,250.70000000000002,,250.70000000000002
908,2019-08-11,297.125,,297.125
908,2019-08-12,203.57500000000002,,203.57500000000002
908,2019-08-13,242.67499999999998,,242.67499999999998
908,2019-08-14,314.09999999999997,,314.09999999999997
908,2019-08-15,232.6,,232.6
908,2019-08-16,186.70000000000002,,186.70000000000002
908,2019-08-17,125.575,,125.575
908,2019-08-18,236.75,,236.75
908,2019-08-19,204.125,,204.125
908,2019-08-20,282.55,,282.55
908,2019-08-21,212.04999999999998,,212.04999999999998
908,2019-08-22,181.54999999999998,,181.54999999999998
908,2019-08-23,316.25,,316.25
908,2019-08-24,185.975,,185.975
908,2019-08-25,248.375,,248.375
908,2019-08-26,294.675,,294.675
908,2019-08-27,187.9,,187.9
908,2019-08-28,128.92499999999998,,128.92499999999998
908,2019-08-29,230.525,,230.525
908,2019-08-30,249.67499999999998,,249.67499999999998
908,2019-08-31,299.925,,299.925
908,2019-09-01,108.39999999999999,,108.39999999999999
908,2019-09-02,155.29999999999998,,155.29999999999998
908,2019-09-03,217.85,,217.85
908,2019-09-04,188.525,,188.525
908,2019-09-05,245.375,,245.375
908,2019-09-06,230.35,,230.35
908,2019-09-07,170.875,,170.875
908,2019-09-08,219.04999999999998,,219.04999999999998
908,2019-09-09,207.25,,207.25
908,2019-09-10,240.625,,240.625
908,2019-09-11,207.57500000000002,,207.57500000000002
908,2019-09-12,119.925,,119.925
908,2019-09-13,162.275,,162.275
908,2019-09-14,226.375,,226.375
908,2019-09-15,113.125,,113.125
908,2019-09-16,234.0,,234.0
908,2019-09-17,0.0,,0.0
908,2019-09-18,0.0,,0.0
908,2019-09-19,0.0,,0.0
908,2019-09-20,0.0,,0.0
908,2019-09-21,0.0,,0.0
908,2019-09-22,0.0,,0.0
908,2019-09-23,0.0,,0.0
908,2019-09-24,0.0,,0.0
908,2019-09-25,0.0,,0.0
908,2019-09-26,0.0,,0.0
908,2019-09-27,0.0,,0.0
908,2019-09-28,0.0,,0.0
908,2019-09-29,0.0,,0.0
908,2019-09-30,0.0,,0.0
908,2019-10-01,0.0,,0.0
908,2019-10-02,0.0,,0.0
908,2019-10-03,0.0,,0.0
908,2019-10-04,51.775,,51.775
908,2019-10-05,0.0,,0.0
908,2019-10-06,0.0,,0.0
908,2019-10-07,64.64999999999999,,64.64999999999999
908,2019-10-08,0.0,,0.0
908,2019-10-09,251.35,,251.35
908,2019-10-10,0.0,,0.0
908,2019-10-11,226.42499999999998,,226.42499999999998
908,2019-10-12,58.375,,58.375
908,2019-10-13,260.3,,260.3
908,2019-10-14,46.5,,46.5
908,2019-10-15,249.5,,249.5
908,2019-10-16,18.325,,18.325
908,2019-10-17,22.0,,22.0
908,2019-10-18,125.925,,125.925
908,2019-10-19,0.0,,0.0
908,2019-10-20,0.0,,0.0
908,2019-10-21,73.575,,73.575
908,2019-10-22,12.075000000000001,,12.075000000000001
908,2019-10-23,167.85,,167.85
908,2019-10-24,49.675000000000004,,49.675000000000004
908,2019-10-25,58.175000000000004,,58.175000000000004
908,2019-10-26,146.4,,146.4
908,2019-10-27,56.65,,56.65
908,2019-10-28,225.275,,225.275
908,2019-10-29,173.375,,173.375
908,2019-10-30,0.0,,0.0
908,2019-10-31,0.0,,0.0
908,2019-11-01,19.175,,19.175
908,2019-11-02,0.0,,0.0
908,2019-11-03,0.0,,0.0
908,2019-11-04,0.0,,0.0
908,2019-11-05,28.175,,28.175
908,2019-11-06,211.45000000000002,,211.45000000000002
908,2019-11-07,0.0,,0.0
908,2019-11-08,0.0,,0.0
908,2019-11-09,59.35,,59.35
908,2019-11-10,38.949999999999996,,38.949999999999996
908,2019-11-11,0.725,,0.725
908,2019-11-12,0.0,,0.0
908,2019-11-13,0.0,,0.0
908,2019-11-14,0.0,,0.0
908,2019-11-15,0.0,,0.0
908,2019-11-16,190.875,,190.875
908,2019-11-17,0.0,,0.0
908,2019-11-18,0.0,,0.0
908,2019-11-19,46.9,,46.9
908,2019-11-20,19.45,,19.45
908,2019-11-21,104.575,,104.575
908,2019-11-22,23.724999999999998,,23.724999999999998
908,2019-11-23,139.45000000000002,,139.45000000000002
908,2019-11-24,105.14999999999999,,105.14999999999999
908,2019-11-25,0.0,,0.0
908,2019-11-26,0.0,,0.0
908,2019-11-27,24.3,,24.3
908,2019-11-28,0.0,,0.0
908,2019-11-29,0.0,,0.0
908,2019-11-30,0.0,,0.0
908,2019-12-01,0.0,,0.0
908,2019-12-02,0.0,,0.0
908,2019-12-03,117.85000000000001,,117.85000000000001
908,2019-12-04,0.0,,0.0
908,2019-12-05,1.7,,1.7
908,2019-12-06,0.0,,0.0
908,2019-12-07,2.125,,2.125
908,2019-12-08,36.949999999999996,,36.949999999999996
908,2019-12-09,24.349999999999998,,24.349999999999998
908,2019-12-10,8.525,,8.525
908,2019-12-11,43.300000000000004,,43.300000000000004
908,2019-12-12,84.625,,84.625
908,2019-12-13,97.175,,97.175
908,2019-12-14,11.799999999999999,,11.799999999999999
908,2019-12-15,59.6,,59.6
908,2019-12-16,114.425,,114.425
908,2019-12-17,0.0,,0.0
908,2019-12-18,29.925,,29.925
908,2019-12-19,31.900000000000002,,31.900000000000002
908,2019-12-20,32.025,,32.025
908,2019-12-21,51.699999999999996,,51.699999999999996
908,2019-12-22,115.425,,115.425
908,2019-12-23,120.02499999999999,,120.02499999999999
908,2019-12-24,0.0,,0.0
908,2019-12-25,76.10000000000001,,76.10000000000001
908,2019-12-26,7.675,,7.675
908,2019-12-27,0.0,,0.0
908,2019-12-28,0.0,,0.0
908,2019-12-29,0.0,,0.0
908,2019-12-30,16.525000000000002,,16.525000000000002
908,2019-12-31,6.45,,6.45
908,2020-01-01,15.15,,15.15
908,2020-01-02,0.0,,0.0
908,2020-01-03,13.15,,13.15
908,2020-01-04,0.075,,0.075
908,2020-01-05,51.25,,51.25
908,2020-01-06,0.0,,0.0
908,2020-01-07,30.525000000000002,,30.525000000000002
908,2020-01-08,5.6499999999999995,,5.6499999999999995
908,2020-01-09,13.674999999999999,,13.674999999999999
908,2020-01-10,14.950000000000001,,14.950000000000001
908,2020-01-11,22.075,,22.075
908,2020-01-12,15.950000000000001,,15.950000000000001
908,2020-01-13,14.725,,14.725
908,2020-01-14,96.2,,96.2
908,2020-01-15,35.800000000000004,,35.800000000000004
908,2020-01-16,20.875,,20.875
908,2020-01-17,10.725,,10.725
908,2020-01-18,1.75,,1.75
908,2020-01-19,5.575,,5.575
908,2020-01-20,8.975,,8.975
908,2020-01-21,6.55,,6.55
908,2020-01-22,30.400000000000002,,30.400000000000002
908,2020-01-23,78.85000000000001,,78.85000000000001
908,2020-01-24,122.89999999999999,,122.89999999999999
908,2020-01-25,0.0,,0.0
908,2020-01-26,0.0,,0.0
908,2020-01-27,0.0,,0.0
908,2020-01-28,0.0,,0.0
908,2020-01-29,0.0,,0.0
908,2020-01-30,0.0,,0.0
908,2020-01-31,0.0,,0.0
908,2020-02-01,0.0,,0.0
908,2020-02-02,0.0,,0.0
908,2020-02-03,0.0,,0.0
908,2020-02-04,0.0,,0.0
908,2020-02-05,0.0,,0.0
908,2020-02-06,0.0,,0.0
908,2020-02-07,0.0,,0.0
908,2020-02-08,0.15,,0.15
908,2020-02-09,21.224999999999998,,21.224999999999998
908,2020-02-10,26.675,,26.675
908,2020-02-11,59.050000000000004,,59.050000000000004
908,2020-02-12,153.95000000000002,,153.95000000000002
908,2020-02-13,28.55,,28.55
908,2020-02-14,15.0,,15.0
908,2020-02-15,128.0,,128.0
908,2020-02-16,29.775000000000002,,29.775000000000002
908,2020-02-17,172.025,,172.025
908,2020-02-18,23.825,,23.825
908,2020-02-19,13.975,,13.975
908,2020-02-20,34.525,,34.525
908,2020-02-21,224.375,,224.375
908,2020-02-22,226.1,,226.1
908,2020-02-23,236.04999999999998,,236.04999999999998
908,2020-02-24,199.65,,199.65
908,2020-02-25,34.525,,34.525
908,2020-02-26,28.150000000000002,,28.150000000000002
908,2020-02-27,66.875,,66.875
908,2020-02-28,160.65,,160.65
908,2020-02-29,20.55,,20.55
908,2020-03-01,0.0,,0.0
908,2020-03-02,59.199999999999996,,59.199999999999996
908,2020-03-03,38.050000000000004,,38.050000000000004
908,2020-03-04,210.275,,210.275
908,2020-03-05,251.975,,251.975
908,2020-03-06,107.2,,107.2
908,2020-03-07,201.20000000000002,,201.20000000000002
908,2020-03-08,288.84999999999997,,288.84999999999997
908,2020-03-09,245.15,,245.15
908,2020-03-10,37.275,,37.275
908,2020-03-11,149.07500000000002,,149.07500000000002
908,2020-03-12,111.25,,111.25
908,2020-03-13,87.575,,87.575
908,2020-03-14,103.875,,103.875
908,2020-03-15,311.09999999999997,,311.09999999999997
908,2020-03-16,267.84999999999997,,267.84999999999997
908,2020-03-17,56.300000000000004,,56.300000000000004
908,2020-03-18,178.32500000000002,,178.32500000000002
908,2020-03-19,102.14999999999999,,102.14999999999999
908,2020-03-20,120.675,,120.675
908,2020-03-21,295.95,,295.95
908,2020-03-22,314.3,,314.3
908,2020-03-23,0.0,,0.0
908,2020-03-24,127.55,,127.55
908,2020-03-25,148.82500000000002,,148.82500000000002
908,2020-03-26,125.3,,125.3
908,2020-03-27,0.0,,0.0
908,2020-03-28,53.925000000000004,,53.925000000000004
908,2020-03-29,120.95000000000003,,120.95000000000003
908,2020-03-30,69.575,,69.575
908,2020-03-31,0.0,,0.0
908,2020-04-01,12.9,,12.9
908,2020-04-02,37.225,,37.225
908,2020-04-03,59.324999999999996,,59.324999999999996
908,2020-04-04,85.375,,85.375
908,2020-04-05,0.0,,0.0
908,2020-04-06,0.0,,0.0
908,2020-04-07,17.1,,17.1
908,2020-04-08,17.325,,17.325
908,2020-04-09,0.0,,0.0
908,2020-04-10,0.0,,0.0
908,2020-04-11,0.0,,0.0
908,2020-04-12,0.0,,0.0
908,2020-04-13,0.0,,0.0
908,2020-04-14,0.0,,0.0
908,2020-04-15,0.0,,0.0
908,2020-04-16,0.0,,0.0
908,2020-04-17,0.0,,0.0
908,2020-04-18,0.0,,0.0
908,2020-04-19,0.0,,0.0
908,2020-04-20,0.0,,0.0
908,2020-04-21,0.0,,0.0
908,2020-04-22,0.0,,0.0
908,2020-04-23,0.0,,0.0
908,2020-04-24,0.0,,0.0
908,2020-04-25,0.0,,0.0
908,2020-04-26,0.0,,0.0
908,2020-04-27,0.0,,0.0
908,2020-04-28,0.0,,0.0
908,2020-04-29,0.0,,0.0
908,2020-04-30,0.0,,0.0
908,2020-05-01,0.0,,0.0
908,2020-05-02,0.0,,0.0
908,2020-05-03,0.0,,0.0
908,2020-05-04,111.25000000000001,,111.25000000000001
908,2020-05-05,315.25,,315.25
908,2020-05-06,213.89999999999998,,213.89999999999998
908,2020-05-07,226.74999999999997,,226.74999999999997
908,2020-05-08,180.70000000000002,,180.70000000000002
908,2020-05-09,144.6,,144.6
908,2020-05-10,162.87499999999997,,162.87499999999997
908,2020-05-11,80.52499999999999,,80.52499999999999
908,2020-05-12,245.14999999999998,,245.14999999999998
908,2020-05-13,349.0749999999999,,349.0749999999999
908,2020-05-14,141.85,,141.85
908,2020-05-15,144.425,,144.425
908,2020-05-16,275.525,,275.525
908,2020-05-17,234.89999999999998,,234.89999999999998
908,2020-05-18,63.600000000000016,,63.600000000000016
908,2020-05-19,235.82500000000002,,235.82500000000002
908,2020-05-20,347.70000000000005,,347.70000000000005
908,2020-05-21,346.075,,346.075
908,2020-05-22,318.1000000000001,,318.1000000000001
908,2020-05-23,273.15,,273.15
908,2020-05-24,258.175,,258.175
908,2020-05-25,307.57500000000005,,307.57500000000005
908,2020-05-26,299.34999999999997,,299.34999999999997
908,2020-05-27,246.04999999999998,,246.04999999999998
908,2020-05-28,0.024999999999999998,,0.024999999999999998
908,2020-05-29,0.0,,0.0
908,2020-05-30,0.0,,0.0
908,2020-05-31,0.0,,0.0
908,2020-06-01,0.0,,0.0
908,2020-06-02,0.0,,0.0
908,2020-06-03,0.0,,0.0
908,2020-06-04,0.0,,0.0
908,2020-06-05,0.0,,0.0
908,2020-06-06,0.0,,0.0
908,2020-06-07,0.0,,0.0
908,2020-06-08,0.0,,0.0
908,2020-06-09,0.0,,0.0
908,2020-06-10,0.0,,0.0
908,2020-06-11,0.0,,0.0
908,2020-06-12,0.0,,0.0
908,2020-06-13,0.0,,0.0
908,2020-06-14,0.0,,0.0
908,2020-06-15,0.0,,0.0
908,2020-06-16,0.0,,0.0
908,2020-06-17,0.0,,0.0
908,2020-06-18,263.84999999999997,,263.84999999999997
908,2020-06-19,290.375,,290.375
908,2020-06-20,292.025,,292.025
908,2020-06-21,285.075,,285.075
908,2020-06-22,0.0,,0.0
908,2020-06-23,0.0,,0.0
908,2020-06-24,0.0,,0.0
908,2020-06-25,100.825,,100.825
908,2020-06-26,45.75,,45.75
908,2020-06-27,0.0,,0.0
908,2020-06-28,0.0,,0.0
908,2020-06-29,0.0,,0.0
908,2020-06-30,0.0,,0.0
908,2020-07-01,0.0,,0.0
908,2020-07-02,0.0,,0.0
908,2020-07-03,0.0,,0.0
908,2020-07-04,0.0,,0.0
908,2020-07-05,0.0,,0.0
908,2020-07-06,0.0,,0.0
908,2020-07-07,0.0,,0.0
908,2020-07-08,0.0,,0.0
908,2020-07-09,32.925000000000004,,32.925000000000004
908,2020-07-10,0.0,,0.0
908,2020-07-11,0.0,,0.0
908,2020-07-12,0.0,,0.0
908,2020-07-13,116.25,,116.25
908,2020-07-14,308.1,,308.1
908,2020-07-15,300.075,,300.075
908,2020-07-16,95.95,,95.95
908,2020-07-17,300.92499999999995,,300.92499999999995
908,2020-07-18,307.925,,307.925
908,2020-07-19,215.19999999999996,,215.19999999999996
908,2020-07-20,239.19999999999996,,239.19999999999996
908,2020-07-21,267.125,,267.125
908,2020-07-22,135.04999999999998,,135.04999999999998
908,2020-07-23,275.175,,275.175
908,2020-07-24,294.40000000000003,,294.40000000000003
908,2020-07-25,311.55,,311.55
908,2020-07-26,292.425,,292.425
908,2020-07-27,225.87499999999997,,225.87499999999997
908,2020-07-28,258.77500000000003,,258.77500000000003
908,2020-07-29,158.17499999999998,,158.17499999999998
908,2020-07-30,312.325,,312.325
908,2020-07-31,304.59999999999997,,304.59999999999997
908,2020-08-01,299.84999999999997,,299.84999999999997
908,2020-08-02,178.22500000000002,,178.22500000000002
908,2020-08-03,223.875,,223.875
908,2020-08-04,87.27500000000002,,87.27500000000002
908,2020-08-05,282.05,,282.05
908,2020-08-06,325.575,,325.575
908,2020-08-07,300.20000000000005,,300.20000000000005
908,2020-08-08,261.52500000000003,,261.52500000000003
908,2020-08-09,255.12499999999997,,255.12499999999997
908,2020-08-10,263.99999999999994,,263.99999999999994
908,2020-08-11,275.175,,275.175
908,2020-08-12,298.77500000000003,,298.77500000000003
908,2020-08-13,294.95,,294.95
908,2020-08-14,314.00000000000006,,314.00000000000006
908,2020-08-15,230.42499999999998,,230.42499999999998
908,2020-08-16,7.375,,7.375
908,2020-08-17,0.0,,0.0
908,2020-08-18,0.0,,0.0
908,2020-08-19,0.0,,0.0
908,2020-08-20,0.0,,0.0
908,2020-08-21,0.0,,0.0
908,2020-08-22,0.0,,0.0
908,2020-08-23,0.0,,0.0
908,2020-08-24,186.65,,186.65
908,2020-08-25,263.49999999999994,,263.49999999999994
908,2020-08-26,237.57500000000005,,237.57500000000005
908,2020-08-27,103.25,,103.25
908,2020-08-28,179.57500000000002,,179.57500000000002
908,2020-08-29,151.22500000000002,,151.22500000000002
908,2020-08-30,260.675,,260.675
908,2020-08-31,291.40000000000003,,291.40000000000003
908,2020-09-01,136.95000000000002,,136.95000000000002
908,2020-09-02,142.25,,142.25
908,2020-09-03,225.64999999999998,,225.64999999999998
908,2020-09-04,247.875,,247.875
908,2020-09-05,148.02499999999998,,148.02499999999998
908,2020-09-06,261.75000000000006,,261.75000000000006
908,2020-09-07,116.10000000000001,,116.10000000000001
908,2020-09-08,223.19999999999996,,223.19999999999996
908,2020-09-09,256.525,,256.525
908,2020-09-10,97.40000000000002,,97.40000000000002
908,2020-09-11,96.67500000000001,,96.67500000000001
908,2020-09-12,268.40000000000003,,268.40000000000003
908,2020-09-13,0.0,,0.0
908,2020-09-14,0.0,,0.0
908,2020-09-15,0.0,,0.0
908,2020-09-16,0.0,,0.0
908,2020-09-17,0.0,,0.0
908,2020-09-18,0.0,,0.0
908,2020-09-19,0.0,,0.0
908,2020-09-20,0.0,,0.0
908,2020-09-21,0.0,,0.0
908,2020-09-22,0.0,,0.0
908,2020-09-23,0.0,,0.0
908,2020-09-24,0.0,,0.0
908,2020-09-25,0.0,,0.0
908,2020-09-26,0.0,,0.0
908,2020-09-27,0.0,,0.0
908,2020-09-28,0.0,,0.0
908,2020-09-29,0.0,,0.0
908,2020-09-30,0.0,,0.0
908,2020-10-01,0.0,,0.0
908,2020-10-02,0.0,,0.0
908,2020-10-03,0.0,,0.0
908,2020-10-04,0.0,,0.0
908,2020-10-05,0.0,,0.0
908,2020-10-06,0.0,,0.0
908,2020-10-07,0.0,,0.0
908,2020-10-08,0.0,,0.0
908,2020-10-09,0.0,,0.0
908,2020-10-10,0.0,,0.0
908,2020-10-11,0.0,,0.0
908,2020-10-12,0.0,,0.0
908,2020-10-13,0.0,,0.0
908,2020-10-14,0.0,,0.0
908,2020-10-15,0.0,,0.0
908,2020-10-16,0.0,,0.0
908,2020-10-17,0.0,,0.0
908,2020-10-18,0.0,,0.0
908,2020-10-19,0.0,,0.0
908,2020-10-20,0.0,,0.0
908,2020-10-21,0.0,,0.0
908,2020-10-22,0.0,,0.0
908,2020-10-23,0.0,,0.0
908,2020-10-24,0.0,,0.0
908,2020-10-25,0.0,,0.0
908,2020-10-26,0.0,,0.0
908,2020-10-27,7.300000000000001,,7.300000000000001
908,2020-10-28,81.6,,81.6
908,2020-10-29,17.975000000000005,,17.975000000000005
908,2020-10-30,81.55,,81.55
908,2020-10-31,208.17500000000004,,208.17500000000004
908,2020-11-01,30.874999999999996,,30.874999999999996
908,2020-11-02,91.52499999999999,,91.52499999999999
908,2020-11-03,51.1,,51.1
908,2020-11-04,207.10000000000002,,207.10000000000002
908,2020-11-05,126.575,,126.575
908,2020-11-06,191.70000000000002,,191.70000000000002
908,2020-11-07,191.20000000000002,,191.20000000000002
908,2020-11-08,194.77499999999998,,194.77499999999998
908,2020-11-09,190.07499999999996,,190.07499999999996
908,2020-11-10,164.975,,164.975
908,2020-11-11,25.799999999999997,,25.799999999999997
908,2020-11-12,118.05,,118.05
908,2020-11-13,73.85000000000001,,73.85000000000001
908,2020-11-14,50.900000000000006,,50.900000000000006
908,2020-11-15,24.375,,24.375
908,2020-11-16,0.0,,0.0
908,2020-11-17,0.0,,0.0
908,2020-11-18,0.0,,0.0
908,2020-11-19,0.0,,0.0
908,2020-11-20,0.0,,0.0
908,2020-11-21,0.0,,0.0
908,2020-11-22,0.0,,0.0
908,2020-11-23,0.0,,0.0
908,2020-11-24,0.0,,0.0
908,2020-11-25,0.0,,0.0
908,2020-11-26,0.0,,0.0
908,2020-11-27,0.0,,0.0
908,2020-11-28,0.0,,0.0
908,2020-11-29,0.0,,0.0
908,2020-11-30,0.0,,0.0
908,2020-12-01,0.0,,0.0
908,2020-12-02,0.0,,0.0
908,2020-12-03,0.0,,0.0
908,2020-12-04,0.0,,0.0
908,2020-12-05,0.0,,0.0
908,2020-12-06,0.0,,0.0
908,2020-12-07,0.0,,0.0
908,2020-12-08,105.575,,105.575
908,2020-12-09,2.5,,2.5
908,2020-12-10,12.200000000000001,,12.200000000000001
908,2020-12-11,46.20000000000001,,46.20000000000001
908,2020-12-12,20.325,,20.325
908,2020-12-13,28.799999999999997,,28.799999999999997
908,2020-12-14,21.05,,21.05
908,2020-12-15,9.9,,9.9
908,2020-12-16,12.824999999999998,,12.824999999999998
908,2020-12-17,0.0,,0.0
908,2020-12-18,0.19999999999999998,,0.19999999999999998
908,2020-12-19,2.8249999999999997,,2.8249999999999997
908,2020-12-20,5.0249999999999995,,5.0249999999999995
908,2020-12-21,40.24999999999999,,40.24999999999999
908,2020-12-22,42.224999999999994,,42.224999999999994
908,2020-12-23,53.475,,53.475
908,2020-12-24,10.775,,10.775
908,2020-12-25,20.725,,20.725
908,2020-12-26,51.199999999999996,,51.199999999999996
908,2020-12-27,47.824999999999996,,47.824999999999996
908,2020-12-28,7.6000000000000005,,7.6000000000000005
908,2020-12-29,0.275,,0.275
908,2020-12-30,10.6,,10.6
908,2020-12-31,37.8,,37.8
908,2021-01-01,41.17499999999999,,41.17499999999999
908,2021-01-02,42.074999999999996,,42.074999999999996
908,2021-01-03,13.174999999999999,,13.174999999999999
908,2021-01-04,18.474999999999998,,18.474999999999998
908,2021-01-05,15.325000000000003,,15.325000000000003
908,2021-01-06,9.074999999999998,,9.074999999999998
908,2021-01-07,19.25,,19.25
908,2021-01-08,16.5,,16.5
908,2021-01-09,97.175,,97.175
908,2021-01-10,35.225,,35.225
908,2021-01-11,57.775,,57.775
908,2021-01-12,6.5,,6.5
908,2021-01-13,35.675,,35.675
908,2021-01-14,16.825000000000003,,16.825000000000003
908,2021-01-15,44.275000000000006,,44.275000000000006
908,2021-01-16,72.60000000000001,,72.60000000000001
908,2021-01-17,20.825,,20.825
908,2021-01-18,25.200000000000003,,25.200000000000003
908,2021-01-19,41.925000000000004,,41.925000000000004
908,2021-01-20,10.25,,10.25
908,2021-01-21,11.100000000000001,,11.100000000000001
908,2021-01-22,1.325,,1.325
908,2021-01-23,0.7999999999999999,,0.7999999999999999
908,2021-01-24,2.6999999999999997,,2.6999999999999997
908,2021-01-25,27.025000000000002,,27.025000000000002
908,2021-01-26,3.15,,3.15
908,2021-01-27,0.425,,0.425
908,2021-01-28,3.975,,3.975
908,2021-01-29,0.125,,0.125
908,2021-01-30,0.75,,0.75
908,2021-01-31,1.7249999999999999,,1.7249999999999999
908,2021-02-01,1.0250000000000001,,1.0250000000000001
908,2021-02-02,0.024999999999999998,,0.024999999999999998
908,2021-02-03,9.274999999999999,,9.274999999999999
908,2021-02-04,157.65,,157.65
908,2021-02-05,159.125,,159.125
908,2021-02-06,67.225,,67.225
908,2021-02-07,25.350000000000005,,25.350000000000005
908,2021-02-08,189.02499999999998,,189.02499999999998
908,2021-02-09,4.0,,4.0
908,2021-02-10,19.45,,19.45
908,2021-02-11,3.1,,3.1
908,2021-02-12,4.150000000000001,,4.150000000000001
908,2021-02-13,3.1750000000000003,,3.1750000000000003
908,2021-02-14,2.3249999999999997,,2.3249999999999997
908,2021-02-15,1.8,,1.8
908,2021-02-16,0.0,,0.0
908,2021-02-17,1.075,,1.075
908,2021-02-18,0.125,,0.125
908,2021-02-19,6.8999999999999995,,6.8999999999999995